Weather in Krasnaya Polyana

Russia / Belgorod Oblast     50°33′04″N   37°08′29″E
temp.,
°C
wind,
m/s
gust,
m/s
humid.,
%
clouds,
%
prec.,
mm/h
press.,
hPa
HPBL,
m
14 august, sun
sun1400:00+23e71455100 0.0 1016425
03:00+23ene7155487 0.1 1015564
06:00+22ene6135882 0.1 1016414
09:00+24ene81358100 0.1 1015502
12:00+30e81037100 0.0 10151434
15:00+31e7932100 0.0 10142020
18:00+29e61036100 0.0 10131193
21:00+24ne7155562 0.5 1013439
15 august, mon
mon1500:00+22ene81752100 0.0 1013446
03:00+21ene61451100 0.0 1013327
06:00+22ene7144196 0.0 1012315
09:00+27e8143371 0.0 1012630
12:00+32e8102377 0.0 10121500
15:00+36ese81017100 0.0 10103646
18:00+34e8111975 0.0 10091160
21:00+30ene9172495 0.0 1010674
16 august, tue
tue1600:00+29e10182779 0.0 1011745
03:00+29ese111829100 0.0 1011836
06:00+25e101731100 0.0 1012659
09:00+25e81429100 0.0 1012704
12:00+28e81226100 0.0 1012961
15:00+30ene3925100 0.0 10101153
18:00+28ene5112998 0.0 1011423
21:00+27e71233100 0.1 1012573
17 august, wed
wed1700:00+25ese51240100 0.9 1011336
03:00+22ene4955100 1.2 1011179
06:00+22e61448100 0.0 1011350
09:00+28ese8102921 0.0 10101132
12:00+32ese57230 0.0 10091856
15:00+35sse462259 0.0 10083086
18:00+33sw452758 0.1 1008581
21:00+25wnw335296 0.8 100930
18 august, thu
thu1800:00+21nne4770100 2.8 101088
03:00+19ene59664 3.3 1009136
06:00+18ene410695 0.0 1009178
09:00+24ene564970 0.4 1010321
12:00+30e45292 0.0 10091249
15:00+32ene44270 0.0 10091672
18:00+31ne45310 0.0 1008910
21:00+21ene487116 1.3 1010115